NEE-02 KRYSAOR

Last updated on Tue Aug 25 2026 00:03:44 GMT+0000 (Coordinated Universal Time)

1 39441U 13066AB 26236.11664380 .00001218 00000+0 13786-3 0 9994 2 39441 97.8911 174.8674 0064921 205.7587 154.0391 14.86853491686294
UTC large
Height (km)
Speed (km/s)
/
Latitude / Longitude
Inclination (degrees)
Orbital Period (minutes)
Azimuth
Elevation
Range (km)
Doppler Factor

Next 0 passes for location: London (51.5072 / 0.1276)

No passes found over London.
NEE-02 KRYSAOR